DW7027 Weather Reports


Display with metric or nautical units.
time (UTC)temp
F
wind
direction
speed
MPH
gust
MPH
rain 1hr
in
rain 24hr
in
rain mn
in
humidity
%
barometer
mb
20260510220703 57 126 1.0 2.0 0.00 0.00 0.00 71 1011.2
20260510220203 58 159 1.0 2.0 0.00 0.00 0.00 71 1011.3
20260510215704 58 176 1.0 2.0 0.00 0.00 0.00 70 1011.3
20260510215203 58 186 1.0 2.0 0.00 0.00 0.00 70 1011.3
20260510214703 58 148 1.0 3.0 0.00 0.00 0.00 70 1011.2
20260510214205 58 172 2.0 3.0 0.00 0.00 0.00 70 1011.4
20260510213703 58 136 2.0 3.0 0.00 0.00 0.00 69 1011.4
20260510213203 59 129 1.0 3.0 0.00 0.00 0.00 69 1011.5
20260510212703 59 103 2.0 3.0 0.00 0.00 0.00 69 1011.7
20260510212203 59 122 2.0 5.0 0.00 0.00 0.00 69 1011.6
20260510211702 59 125 2.0 3.0 0.00 0.00 0.00 68 1011.9
20260510211203 59 115 3.0 5.0 0.00 0.00 0.00 68 1011.9
20260510210203 60 90 2.0 3.0 0.00 0.00 0.00 67 1011.8
20260510205703 60 92 2.0 5.0 0.00 0.00 0.00 67 1011.8
20260510204203 60 91 1.0 3.0 0.00 0.00 0.00 66 1011.9
20260510203703 61 70 1.0 3.0 0.00 0.00 0.00 65 1012.2
20260510203203 61 67 2.0 5.0 0.00 0.00 0.00 65 1012.1
20260510202203 61 115 2.0 5.0 0.00 0.00 0.00 64 1012.2
20260510201703 62 99 2.0 5.0 0.00 0.00 0.00 64 1012.2
20260510201202 62 119 3.0 5.0 0.00 0.00 0.00 64 1012.2
20260510200703 62 106 3.0 5.0 0.00 0.00 0.00 63 1012.4
20260510200203 62 109 3.0 6.0 0.00 0.00 0.00 63 1012.4
20260510195703 62 118 2.0 5.0 0.00 0.00 0.00 62 1012.6
20260510195203 63 110 2.0 5.0 0.00 0.00 0.00 62 1012.6
20260510194703 63 87 2.0 5.0 0.00 0.00 0.00 62 1012.7
20260510193704 64 107 2.0 5.0 0.00 0.00 0.00 61 1012.7
20260510193203 64 111 2.0 5.0 0.00 0.00 0.00 60 1012.8
20260510192703 64 103 2.0 5.0 0.00 0.00 0.00 60 1012.7
20260510192204 64 99 1.0 5.0 0.00 0.00 0.00 60 1012.5
20260510191703 64 115 2.0 3.0 0.00 0.00 0.00 59 1012.5
20260510190703 65 116 2.0 3.0 0.00 0.00 0.00 58 1012.7
20260510190204 65 96 2.0 2.0 0.00 0.00 0.00 58 1012.7
20260510185703 66 78 1.0 3.0 0.00 0.00 0.00 57 1012.6
20260510185203 66 89 2.0 3.0 0.00 0.00 0.00 57 1012.8
20260510184703 66 44 1.0 3.0 0.00 0.00 0.00 56 1012.7
20260510184203 67 119 3.0 5.0 0.00 0.00 0.00 56 1012.7
20260510183703 67 98 2.0 5.0 0.00 0.00 0.00 55 1012.6
20260510183203 67 94 2.0 5.0 0.00 0.00 0.00 55 1012.7
20260510182703 68 118 3.0 6.0 0.00 0.00 0.00 55 1012.7
20260510182203 68 113 3.0 6.0 0.00 0.00 0.00 54 1012.7
20260510181703 68 121 2.0 5.0 0.00 0.00 0.00 54 1012.7
20260510181203 69 101 2.0 5.0 0.00 0.00 0.00 53 1012.9
20260510180704 69 119 2.0 6.0 0.00 0.00 0.00 53 1012.8
20260510175703 69 101 3.0 5.0 0.00 0.00 0.00 52 1013.1
20260510175203 70 123 3.0 6.0 0.00 0.00 0.00 52 1013.0
20260510174703 70 132 3.0 6.0 0.00 0.00 0.00 52 1013.2
20260510174205 70 119 4.0 6.0 0.00 0.00 0.00 52 1013.0
20260510173703 70 123 2.0 7.0 0.00 0.00 0.00 51 1013.2
20260510172704 71 145 2.0 6.0 0.00 0.00 0.00 51 1013.2
20260510172203 71 144 3.0 8.0 0.00 0.00 0.00 50 1013.2
20260510171703 71 118 4.0 7.0 0.00 0.00 0.00 50 1013.4
20260510165703 71 119 6.0 9.0 0.00 0.00 0.00 50 1013.6
20260510165204 71 133 5.0 9.0 0.00 0.00 0.00 49 1013.7
20260510164203 71 146 4.0 9.0 0.00 0.00 0.00 49 1013.7
20260510163703 72 143 3.0 6.0 0.00 0.00 0.00 48 1013.8
20260510163203 72 164 3.0 5.0 0.00 0.00 0.00 48 1013.8
20260510162703 72 137 2.0 6.0 0.00 0.00 0.00 48 1013.7
20260510162203 72 116 3.0 6.0 0.00 0.00 0.00 48 1013.9
20260510161704 73 185 3.0 6.0 0.00 0.00 0.00 47 1014.0
20260510160203 73 153 5.0 10.0 0.00 0.00 0.00 46 1014.3
20260510155204 74 206 5.0 9.0 0.00 0.00 0.00 46 1014.1
20260510154704 74 180 5.0 12.0 0.00 0.00 0.00 47 1014.4
20260510154203 73 177 6.0 13.0 0.00 0.00 0.00 46 1014.6
20260510153703 73 180 5.0 9.0 0.00 0.00 0.00 46 1014.4
20260510153204 73 178 3.0 9.0 0.00 0.00 0.00 46 1014.5
20260510152203 73 198 5.0 12.0 0.00 0.00 0.00 46 1014.9
20260510151705 73 198 3.0 5.0 0.00 0.00 0.00 46 1014.7
20260510151203 73 137 2.0 7.0 0.00 0.00 0.00 45 1014.8
20260510150703 74 182 5.0 9.0 0.00 0.00 0.00 45 1014.9
20260510150203 74 190 3.0 8.0 0.00 0.00 0.00 44 1015.0
20260510145203 74 147 2.0 6.0 0.00 0.00 0.00 45 1015.2
20260510144704 74 130 3.0 8.0 0.00 0.00 0.00 44 1015.1
20260510144203 74 116 2.0 7.0 0.00 0.00 0.00 45 1015.2
20260510143703 74 202 4.0 12.0 0.00 0.00 0.00 44 1015.3
20260510143204 74 132 5.0 10.0 0.00 0.00 0.00 44 1015.4
20260510142703 74 187 4.0 9.0 0.00 0.00 0.00 45 1015.6
20260510142207 74 162 7.0 10.0 0.00 0.00 0.00 44 1015.6
20260510141704 75 185 3.0 9.0 0.00 0.00 0.00 43 1015.5
20260510140203 75 186 7.0 12.0 0.00 0.00 0.00 42 1015.9
20260510135208 75 230 4.0 9.0 0.00 0.00 0.00 43 1016.1
20260510134703 75 256 5.0 10.0 0.00 0.00 0.00 42 1016.0
20260510133707 75 171 7.0 13.0 0.00 0.00 0.00 42 1016.3
20260510133203 74 221 5.0 13.0 0.00 0.00 0.00 43 1016.5
20260510132703 74 176 6.0 13.0 0.00 0.00 0.00 44 1016.5
20260510132204 74 115 8.0 13.0 0.00 0.00 0.00 43 1016.7
20260510131703 74 118 3.0 9.0 0.00 0.00 0.00 44 1016.7
20260510131203 74 193 7.0 12.0 0.00 0.00 0.00 43 1016.7
20260510130705 74 196 6.0 10.0 0.00 0.00 0.00 43 1016.8
20260510130204 74 156 7.0 13.0 0.00 0.00 0.00 42 1016.9
20260510125703 75 205 7.0 14.0 0.00 0.00 0.00 43 1017.0
20260510124703 74 228 6.0 10.0 0.00 0.00 0.00 43 1017.2
20260510124210 74 244 5.0 8.0 0.00 0.00 0.00 44 1017.1
20260510123203 74 187 6.0 12.0 0.00 0.00 0.00 43 1017.3
20260510122703 74 179 9.0 13.0 0.00 0.00 0.00 43 1017.4
20260510122215 74 204 6.0 10.0 0.00 0.00 0.00 44 1017.4
20260510121203 74 202 6.0 13.0 0.00 0.00 0.00 44 1017.5
20260510120704 74 175 7.0 15.0 0.00 0.00 0.00 44 1017.8
20260510115703 74 231 3.0 12.0 0.00 0.00 0.00 44 1018.0
20260510115203 73 236 6.0 15.0 0.00 0.00 0.00 45 1018.0
20260510114204 72 248 6.0 12.0 0.00 0.00 0.00 46 1018.5
20260510113703 72 81 3.0 10.0 0.00 0.00 0.00 45 1018.5
20260510113203 73 180 4.0 13.0 0.00 0.00 0.00 45 1018.4
20260510112203 73 156 4.0 10.0 0.00 0.00 0.00 47 1018.6
20260510111704 72 196 7.0 9.0 0.00 0.00 0.00 46 1018.6
20260510110704 71 233 7.0 12.0 0.00 0.00 0.00 45 1018.9
20260510110203 71 110 4.0 13.0 0.00 0.00 0.00 47 1018.9
20260510105704 71 196 4.0 13.0 0.00 0.00 0.00 46 1019.0
20260510105203 71 164 4.0 10.0 0.00 0.00 0.00 47 1019.0
20260510104704 71 180 3.0 7.0 0.00 0.00 0.00 47 1019.2
20260510104204 70 141 5.0 10.0 0.00 0.00 0.00 47 1019.3
20260510103703 70 185 3.0 8.0 0.00 0.00 0.00 47 1019.2
20260510103204 70 203 7.0 10.0 0.00 0.00 0.00 47 1019.5
20260510102704 70 214 3.0 8.0 0.00 0.00 0.00 47 1019.4
20260510102203 70 193 3.0 6.0 0.00 0.00 0.00 48 1019.5
20260510101203 69 136 5.0 8.0 0.00 0.00 0.00 48 1019.6
20260510100703 69 208 4.0 7.0 0.00 0.00 0.00 47 1019.8
20260510100203 69 198 2.0 3.0 0.00 0.00 0.00 49 1020.1
20260510095703 69 236 2.0 6.0 0.00 0.00 0.00 48 1020.1
20260510095204 69 118 4.0 7.0 0.00 0.00 0.00 49 1020.1
20260510094703 69 215 4.0 9.0 0.00 0.00 0.00 48 1020.3
20260510094203 69 182 4.0 9.0 0.00 0.00 0.00 49 1020.3
20260510093704 69 15 3.0 7.0 0.00 0.00 0.00 49 1020.4
20260510093203 68 20 3.0 8.0 0.00 0.00 0.00 49 1020.3
20260510092703 68 130 2.0 5.0 0.00 0.00 0.00 49 1020.5
20260510092203 68 205 3.0 5.0 0.00 0.00 0.00 48 1020.5
20260510091704 68 66 3.0 6.0 0.00 0.00 0.00 50 1020.5
20260510091204 68 66 3.0 10.0 0.00 0.00 0.00 49 1020.5
20260510090703 67 69 3.0 7.0 0.00 0.00 0.00 51 1020.7
20260510085703 67 313 2.0 6.0 0.00 0.00 0.00 52 1021.2
20260510085203 66 61 3.0 6.0 0.00 0.00 0.00 53 1021.2
20260510084703 66 39 3.0 6.0 0.00 0.00 0.00 53 1021.2
20260510083703 65 330 3.0 6.0 0.00 0.00 0.00 55 1021.2
20260510083204 65 321 2.0 3.0 0.00 0.00 0.00 57 1021.3
20260510082703 64 198 1.0 2.0 0.00 0.00 0.00 57 1021.3
20260510082204 64 208 2.0 5.0 0.00 0.00 0.00 56 1021.4
20260510081704 64 275 1.0 2.0 0.00 0.00 0.00 58 1021.4
20260510081203 63 354 2.0 3.0 0.00 0.00 0.00 59 1021.7
20260510080703 63 347 2.0 5.0 0.00 0.00 0.00 60 1021.7
20260510080203 62 33 2.0 3.0 0.00 0.00 0.00 58 1021.7
20260510075703 62 116 2.0 8.0 0.00 0.00 0.00 61 1021.8
20260510075203 62 28 2.0 6.0 0.00 0.00 0.00 63 1021.7
20260510074204 60 31 3.0 6.0 0.00 0.00 0.00 65 1022.0
20260510073703 60 343 2.0 3.0 0.00 0.00 0.00 66 1021.8
20260510073204 59 45 2.0 7.0 0.00 0.00 0.00 66 1021.9
20260510072203 58 110 3.0 6.0 0.00 0.00 0.00 68 1022.0
20260510071704 57 31 1.0 5.0 0.00 0.00 0.00 70 1021.8
20260510071203 57 15 3.0 8.0 0.00 0.00 0.00 70 1022.0
20260510070703 56 19 2.0 6.0 0.00 0.00 0.00 71 1021.9
20260510070203 56 45 3.0 6.0 0.00 0.00 0.00 72 1022.1
20260510065203 55 64 2.0 5.0 0.00 0.00 0.00 74 1022.3
20260510064703 54 74 2.0 6.0 0.00 0.00 0.00 75 1022.3
20260510064203 54 97 3.0 5.0 0.00 0.00 0.00 76 1022.3
20260510063703 53 29 3.0 6.0 0.00 0.00 0.00 78 1022.4
20260510063204 52 44 4.0 7.0 0.00 0.00 0.00 78 1022.5
20260510062703 52 5 2.0 7.0 0.00 0.00 0.00 79 1022.6
20260510062204 51 26 3.0 7.0 0.00 0.00 0.00 80 1022.3
20260510061704 51 7 1.0 5.0 0.00 0.00 0.00 81 1022.4
20260510060704 50 351 2.0 5.0 0.00 0.00 0.00 83 1022.3
20260510060204 49 50 2.0 5.0 0.00 0.00 0.00 83 1022.2
20260510055703 49 45 3.0 5.0 0.00 0.00 0.00 84 1022.3
20260510054703 48 41 4.0 8.0 0.00 0.00 0.00 85 1022.2
20260510054203 47 67 3.0 8.0 0.00 0.00 0.00 86 1022.2
20260510053703 47 6 3.0 8.0 0.00 0.00 0.00 86 1022.1
20260510052703 46 352 2.0 7.0 0.00 0.00 0.00 87 1022.3
20260510052204 46 7 4.0 6.0 0.00 0.00 0.00 88 1022.1
20260510051704 45 10 5.0 7.0 0.00 0.00 0.00 88 1022.1
20260510051203 45 11 3.0 5.0 0.00 0.00 0.00 88 1022.3
20260510050703 44 8 2.0 5.0 0.00 0.00 0.00 89 1022.2
20260510045704 43 8 3.0 5.0 0.00 0.00 0.00 89 1022.5
20260510045204 43 342 3.0 5.0 0.00 0.00 0.00 89 1022.3
20260510044703 42 342 1.0 3.0 0.00 0.00 0.00 89 1022.4
20260510044204 42 350 3.0 3.0 0.00 0.00 0.00 89 1022.2
20260510043703 41 345 2.0 3.0 0.00 0.00 0.00 89 1022.3
20260510043205 41 56 1.0 2.0 0.00 0.00 0.00 89 1022.3
20260510042704 41 27 2.0 3.0 0.00 0.00 0.00 89 1022.3
20260510042204 40 1 2.0 3.0 0.00 0.00 0.00 88 1022.3
20260510041703 40 300 2.0 5.0 0.00 0.00 0.00 88 1022.6
20260510041204 40 262 1.0 3.0 0.00 0.00 0.00 88 1022.6
20260510040704 40 292 2.0 3.0 0.00 0.00 0.00 88 1022.3
20260510035704 40 293 2.0 3.0 0.00 0.00 0.00 87 1022.3
20260510035203 40 300 1.0 3.0 0.00 0.00 0.00 87 1022.2
20260510034704 40 297 1.0 2.0 0.00 0.00 0.00 87 1022.3
20260510034203 40 311 1.0 3.0 0.00 0.00 0.00 87 1022.3
20260510033705 40 289 2.0 3.0 0.00 0.00 0.00 87 1022.4
20260510032204 40 351 2.0 2.0 0.00 0.00 0.00 86 1022.3
20260510030704 40 340 1.0 2.0 0.00 0.00 0.00 86 1022.2
20260510025703 41 296 0.0 2.0 0.00 0.00 0.00 86 1022.3
20260510025205 41 336 1.0 2.0 0.00 0.00 0.00 86 1022.2
20260510024704 41 322 1.0 2.0 0.00 0.00 0.00 85 1022.3
20260510023704 41 298 2.0 3.0 0.00 0.00 0.00 85 1022.2
20260510023203 41 297 2.0 3.0 0.00 0.00 0.00 85 1022.3
20260510022703 41 301 2.0 3.0 0.00 0.00 0.00 85 1022.3
20260510022203 42 333 1.0 2.0 0.00 0.00 0.00 84 1022.1
20260510021204 42 311 1.0 2.0 0.00 0.00 0.00 84 1022.3
20260510020703 42 291 1.0 2.0 0.00 0.00 0.00 84 1022.1
20260510020203 42 300 1.0 2.0 0.00 0.00 0.00 84 1022.2
20260510015204 43 339 1.0 3.0 0.00 0.00 0.00 84 1022.0
20260510014703 43 337 1.0 3.0 0.00 0.00 0.00 84 1022.1
20260510014203 43 356 2.0 3.0 0.00 0.00 0.00 83 1022.0
20260510013704 43 334 1.0 2.0 0.00 0.00 0.00 83 1022.2
20260510013205 43 301 0.0 2.0 0.00 0.00 0.00 83 1022.2
20260510012704 43 349 2.0 3.0 0.00 0.00 0.00 83 1022.2
20260510012203 43 339 2.0 3.0 0.00 0.00 0.00 83 1022.4
20260510011703 43 356 2.0 3.0 0.00 0.00 0.00 82 1022.5
20260510011204 43 336 2.0 5.0 0.00 0.00 0.00 82 1022.4
20260510010703 43 298 2.0 3.0 0.00 0.00 0.00 82 1022.5
20260510005704 43 262 1.0 2.0 0.00 0.00 0.00 81 1022.4
20260510005203 44 320 1.0 6.0 0.00 0.00 0.00 81 1022.4
20260510004703 44 323 3.0 5.0 0.00 0.00 0.00 81 1022.4
20260510004203 44 342 2.0 5.0 0.00 0.00 0.00 81 1022.5
20260510003703 44 337 3.0 5.0 0.00 0.00 0.00 81 1022.4
20260510003203 44 332 2.0 5.0 0.00 0.00 0.00 81 1022.5
20260510002704 44 346 2.0 3.0 0.00 0.00 0.00 80 1022.6
20260510002203 44 354 2.0 5.0 0.00 0.00 0.00 80 1022.7
20260510001704 44 325 3.0 5.0 0.00 0.00 0.00 79 1022.8
20260510000703 45 274 3.0 3.0 0.00 0.00 0.00 79 1022.8
20260510000204 45 288 2.0 3.0 0.00 0.00 0.00 79 1022.6
20260509235703 45 344 2.0 5.0 0.00 0.00 0.00 79 1022.7
20260509235204 45 355 3.0 6.0 0.00 0.00 0.00 79 1022.7
20260509234204 45 353 3.0 5.0 0.00 0.00 0.00 77 1022.7
20260509233704 45 348 2.0 2.0 0.00 0.00 0.00 77 1022.9
20260509233204 45 283 2.0 3.0 0.00 0.00 0.00 77 1022.9
20260509232704 46 284 2.0 3.0 0.00 0.00 0.00 76 1023.1
20260509232203 46 276 2.0 3.0 0.00 0.00 0.00 76 1023.2
20260509231703 46 336 1.0 3.0 0.00 0.00 0.00 75 1023.1
20260509230703 46 297 1.0 3.0 0.00 0.00 0.00 75 1023.4
20260509230203 47 291 1.0 2.0 0.00 0.00 0.00 74 1023.3
20260509225704 47 330 2.0 3.0 0.00 0.00 0.00 74 1023.3
20260509225203 47 354 2.0 3.0 0.00 0.00 0.00 74 1023.4
20260509223703 48 343 2.0 5.0 0.00 0.00 0.00 72 1023.4
20260509223203 48 314 1.0 3.0 0.00 0.00 0.00 72 1023.4
20260509222704 48 325 2.0 5.0 0.00 0.00 0.00 72 1023.4
20260509222203 48 342 3.0 6.0 0.00 0.00 0.00 72 1023.4
20260509221703 49 347 2.0 3.0 0.00 0.00 0.00 71 1023.3
20260509221204 49 1 2.0 2.0 0.00 0.00 0.00 70 1023.5